Weather History for Wenatchee, WA

Change the Weather History Date:

Monday, April 30, 2012

  Actual Average Record
Temperature  
Mean Temperature 51 °F 49 °F  
Max Temperature 63 °F 61 °F 88 °F (1998)
Min Temperature 39 °F 37 °F 24 °F (2013)
Degree Days  
Heating Degree Days 14 16  
Month to date heating degree days 535 571  
Since 1 July heating degree days 6469 6579  
Cooling Degree Days 0 0  
Month to date cooling degree days 0 0  
Year to date cooling degree days 0 0  
Growing Degree Days 7 (Base 50)    
Moisture  
Dew Point 34 °F    
Average Humidity 47    
Maximum Humidity 71    
Minimum Humidity 27    
Precipitation  
Precipitation 0.18 in 0.03 in 0.23 in (1987)
Month to date precipitation 2.12 1.23  
Year to date precipitation 9.18 6.27  
Snow  
Snow 0.00 in 0.00 in - ()
Month to date snowfall 1.4 1.9  
Since 1 July snowfall 36.3 53.6  
Snow Depth 0.00 in    
Sea Level Pressure  
Sea Level Pressure 29.64 in    
Wind  
Wind Speed 12 mph (WNW)    
Max Wind Speed 24 mph    
Max Gust Speed 34 mph    
Visibility 10 miles    
Events      
T = Trace of Precipitation, MM = Missing Value Source: NWS Daily Summary

Daily Weather History Graph

Daily Weather History Graph

Search for Another Location

Airport:

Trip Planner

Search our weather history database for the weather conditions in past years. The results will help you decide how hot, cold, wet, or windy it might be!

Date:

Astronomy

Apr. 30, 2012 Rise Set
Actual Time 5:44 AM PDT 8:11 PM PDT
Civil Twilight 5:10 AM PDT 8:46 PM PDT
Nautical Twilight 4:27 AM PDT 9:29 PM PDT
Astronomical Twilight 3:38 AM PDT 10:18 PM PDT
Moon 1:50 PM PDT (4/30) 2:38 AM PDT (4/30)
Length of Visible Light 15h 35m
Length of Day
14h 26m
Waxing Gibbous, 65% of the Moon is Illuminated
Apr 30
Waxing Gibbous
May 5
Full
May 12
Last Quarter
May 20
New
May 28
First Quarter

Hourly Weather History & Observations

Time (PDT) Temp. Dew Point Humidity Pressure Visibility Wind Dir Wind Speed Gust Speed Precip Events Conditions
12:55 AM 55.9 °F 36.0 °F 47% 29.68 in 10.0 mi NNW 10.4 mph - N/A   Overcast
1:55 AM 55.0 °F 37.0 °F 51% 29.67 in 10.0 mi NNW 11.5 mph - 0.00 in   Overcast
2:55 AM 52.0 °F 41.0 °F 66% 29.63 in 10.0 mi NNW 6.9 mph - 0.00 in   Overcast
3:55 AM 52.0 °F 39.9 °F 63% 29.60 in 10.0 mi NNW 5.8 mph - 0.00 in   Scattered Clouds
4:55 AM 51.1 °F 39.0 °F 63% 29.60 in 10.0 mi NNW 8.1 mph - N/A   Overcast
5:55 AM 50.0 °F 39.9 °F 68% 29.59 in 10.0 mi WNW 6.9 mph - N/A   Overcast
6:55 AM 48.9 °F 39.9 °F 71% 29.58 in 10.0 mi NW 12.7 mph - N/A   Partly Cloudy
7:55 AM 52.0 °F 39.0 °F 61% 29.58 in 10.0 mi NW 11.5 mph - N/A   Partly Cloudy
8:55 AM 52.0 °F 39.0 °F 61% 29.58 in 10.0 mi West 8.1 mph - N/A   Overcast
9:55 AM 55.0 °F 39.0 °F 55% 29.58 in 10.0 mi Calm Calm - N/A   Scattered Clouds
10:55 AM 59.0 °F 37.0 °F 44% 29.57 in 10.0 mi Variable 5.8 mph - N/A   Mostly Cloudy
11:55 AM 63.0 °F 35.1 °F 35% 29.59 in 10.0 mi West 16.1 mph 27.6 mph N/A   Mostly Cloudy
12:10 PM 62.6 °F 35.6 °F 37% 29.60 in 10.0 mi West 21.9 mph 26.5 mph N/A   Mostly Cloudy
12:55 PM 63.0 °F 33.1 °F 33% 29.60 in 10.0 mi West 16.1 mph 33.4 mph N/A   Clear
1:55 PM 66.0 °F 30.9 °F 27% 29.61 in 10.0 mi West 20.7 mph 31.1 mph N/A   Partly Cloudy
2:55 PM 64.0 °F 30.9 °F 29% 29.61 in 10.0 mi West 24.2 mph 34.5 mph N/A   Clear
3:55 PM 63.0 °F 32.0 °F 31% 29.62 in 10.0 mi West 21.9 mph 29.9 mph N/A   Scattered Clouds
4:55 PM 62.1 °F 32.0 °F 32% 29.65 in 10.0 mi WSW 21.9 mph 33.4 mph N/A   Partly Cloudy
5:55 PM 59.0 °F 28.0 °F 31% 29.65 in 10.0 mi West 19.6 mph 31.1 mph N/A   Clear
6:55 PM 55.9 °F 33.1 °F 42% 29.67 in 10.0 mi WNW 16.1 mph - N/A   Clear
7:55 PM 53.1 °F 28.0 °F 38% 29.69 in 10.0 mi West 16.1 mph - N/A   Clear
8:55 PM 52.0 °F 26.1 °F 37% 29.71 in 10.0 mi West 20.7 mph 29.9 mph N/A   Clear
9:55 PM 50.0 °F 26.1 °F 39% 29.73 in 10.0 mi West 21.9 mph 27.6 mph N/A   Clear
10:55 PM 48.0 °F 30.0 °F 50% 29.74 in 10.0 mi NW 10.4 mph - N/A   Clear
11:55 PM 46.9 °F 30.0 °F 52% 29.75 in 10.0 mi NW 9.2 mph - N/A   Clear